Weather History for Cumberland, WI

Change the Weather History Date:

Saturday, October 13, 2012

  Actual Average (KRPD) Record (KRPD)
Temperature  
Mean Temperature 40 °F -  
Max Temperature 44 °F 56 °F 73 °F (2000)
Min Temperature 37 °F 36 °F 30 °F (2002)
Degree Days  
Heating Degree Days 24    
Moisture  
Dew Point 39 °F    
Average Humidity 92    
Maximum Humidity 100    
Minimum Humidity 34    
Precipitation  
Precipitation 0.00 in - - ()
Sea Level Pressure  
Sea Level Pressure 29.82 in    
Wind  
Wind Speed 9 mph (ESE)    
Max Wind Speed 20 mph    
Max Gust Speed 28 mph    
Visibility 4 miles    
Events Fog , Rain    
Averages and records for this station are not official NWS values.
T = Trace of Precipitation, MM = Missing Value Source: NWS Daily Summary

Daily Weather History Graph

Daily Weather History Graph

Search for Another Location

Airport:

Trip Planner

Search our weather history database for the weather conditions in past years. The results will help you decide how hot, cold, wet, or windy it might be!

Date:

Astronomy

Oct. 13, 2012 Rise Set
Actual Time 7:22 AM CDT 6:25 PM CDT
Civil Twilight 6:52 AM CDT 6:54 PM CDT
Nautical Twilight 6:18 AM CDT 7:29 PM CDT
Astronomical Twilight 5:43 AM CDT 8:03 PM CDT
Moon 5:08 AM CDT (10/13) 5:11 PM CDT (10/13)
Length of Visible Light 12h 02m
Length of Day
11h 02m
Waning Crescent, 5% of the Moon is Illuminated
Oct 13
Waning Crescent
Oct 15
New
Oct 21
First Quarter
Oct 29
Full
Nov 6
Last Quarter

Hourly Weather History & Observations

Time (CDT) Temp. Windchill Dew Point Humidity Pressure Visibility Wind Dir Wind Speed Gust Speed Precip Events Conditions
12:55 AM 44.6 °F 37.8 °F 17.6 °F 34% 30.05 in 10.0 mi South 15.0 mph 19.6 mph N/A   Overcast
1:35 AM 42.8 °F 34.3 °F 23.0 °F 46% 30.05 in 10.0 mi South 19.6 mph 27.6 mph N/A   Overcast
1:55 AM 42.8 °F 35.8 °F 26.6 °F 53% 30.03 in 10.0 mi SSW 13.8 mph 19.6 mph N/A   Overcast
2:15 AM 41.0 °F 33.5 °F 30.2 °F 65% 30.01 in 10.0 mi South 13.8 mph 18.4 mph N/A   Overcast
2:35 AM 41.0 °F 34.7 °F 32.0 °F 70% 30.01 in 10.0 mi SSE 10.4 mph - N/A   Overcast
2:55 AM 41.0 °F 34.7 °F 32.0 °F 70% 29.99 in 10.0 mi SSE 10.4 mph - N/A   Overcast
3:15 AM 39.2 °F 31.6 °F 33.8 °F 81% 29.98 in 10.0 mi SSE 12.7 mph - N/A   Light Drizzle
3:35 AM 39.2 °F 33.6 °F 33.8 °F 81% 29.97 in 10.0 mi SSE 8.1 mph - N/A   Overcast
3:55 AM 37.4 °F 30.8 °F 35.6 °F 93% 29.96 in 5.0 mi SE 9.2 mph - N/A Rain Light Rain
4:15 AM 37.4 °F 32.1 °F 35.6 °F 93% 29.94 in 4.0 mi SE 6.9 mph - N/A   Light Drizzle
4:35 AM 37.4 °F 30.3 °F 35.6 °F 93% 29.93 in 2.5 mi SSE 10.4 mph - N/A   Overcast
4:55 AM 37.4 °F 30.3 °F 35.6 °F 93% 29.92 in 2.5 mi SE 10.4 mph - N/A   Drizzle
5:15 AM 37.4 °F 29.8 °F 35.6 °F 93% 29.92 in 2.5 mi SSE 11.5 mph - N/A Rain Light Rain
5:35 AM 37.4 °F 29.8 °F 35.6 °F 93% 29.91 in 2.0 mi SSE 11.5 mph - N/A Rain Light Rain
5:55 AM 37.4 °F 30.8 °F 35.6 °F 93% 29.89 in 3.0 mi SSE 9.2 mph - N/A   Light Drizzle
6:15 AM 37.4 °F 32.1 °F 35.6 °F 93% 29.89 in 2.5 mi SE 6.9 mph - N/A Rain Rain
6:35 AM 37.4 °F 32.8 °F 35.6 °F 93% 29.88 in 2.5 mi SE 5.8 mph - N/A   Drizzle
6:55 AM 37.4 °F 32.8 °F 35.6 °F 93% 29.88 in 2.5 mi ESE 5.8 mph - N/A   Drizzle
7:15 AM 37.4 °F 32.8 °F 35.6 °F 93% 29.86 in 2.5 mi SE 5.8 mph - N/A   Drizzle
7:35 AM 37.4 °F 32.1 °F 35.6 °F 93% 29.86 in 1.5 mi SE 6.9 mph - N/A   Drizzle
7:55 AM 37.4 °F 32.1 °F 37.4 °F 100% 29.85 in 1.5 mi SSE 6.9 mph - N/A   Drizzle
8:15 AM 37.4 °F 32.1 °F 37.4 °F 100% 29.84 in 1.8 mi SE 6.9 mph - N/A   Light Drizzle
8:55 AM 39.2 °F 34.2 °F 37.4 °F 93% 29.83 in 1.5 mi SSE 6.9 mph - N/A   Light Drizzle
9:35 AM 41.0 °F 35.8 °F 39.2 °F 93% 29.82 in 1.8 mi SSE 8.1 mph - N/A   Overcast
9:55 AM 41.0 °F 37.1 °F 39.2 °F 93% 29.83 in 1.5 mi SSE 5.8 mph - N/A   Overcast
10:15 AM 41.0 °F - 39.2 °F 93% 29.82 in 1.8 mi Calm Calm - N/A   Overcast
10:35 AM 41.0 °F 36.4 °F 41.0 °F 100% 29.82 in 1.5 mi SE 6.9 mph - N/A   Overcast
10:55 AM 41.0 °F 36.4 °F 41.0 °F 100% 29.81 in 1.2 mi SE 6.9 mph - N/A   Drizzle
11:15 AM 41.0 °F 38.0 °F 41.0 °F 100% 29.80 in 1.2 mi ESE 4.6 mph - N/A   Light Drizzle
11:35 AM 42.8 °F 41.1 °F 41.0 °F 93% 29.78 in 1.5 mi East 3.5 mph - N/A   Overcast
11:55 AM 42.8 °F 40.1 °F 41.0 °F 93% 29.78 in 1.8 mi SE 4.6 mph - N/A   Overcast
12:35 PM 42.8 °F 38.6 °F 41.0 °F 93% 29.78 in 0.8 mi SSE 6.9 mph - N/A   Overcast
12:55 PM 42.8 °F 40.1 °F 42.8 °F 100% 29.77 in 0.5 mi SE 4.6 mph - N/A Fog Fog
1:15 PM 42.8 °F 40.1 °F 42.8 °F 100% 29.75 in 0.5 mi SE 4.6 mph - N/A Fog Fog
1:35 PM 42.8 °F 40.1 °F 42.8 °F 100% 29.74 in 1.0 mi SSE 4.6 mph - N/A   Drizzle
1:55 PM 44.6 °F 40.7 °F 42.8 °F 93% 29.73 in 1.5 mi SE 6.9 mph - N/A   Light Drizzle
2:15 PM 44.6 °F 43.1 °F 42.8 °F 93% 29.73 in 2.0 mi ESE 3.5 mph - N/A   Overcast
2:35 PM 44.6 °F - 42.8 °F 93% 29.71 in 2.5 mi Calm Calm - N/A   Overcast
2:55 PM 44.6 °F 43.1 °F 42.8 °F 93% 29.71 in 4.0 mi ENE 3.5 mph - N/A   Overcast
3:15 PM 44.6 °F 43.1 °F 42.8 °F 93% 29.71 in 4.0 mi ENE 3.5 mph - N/A   Overcast
3:35 PM 44.6 °F 43.1 °F 44.6 °F 100% 29.71 in 4.0 mi East 3.5 mph - N/A   Overcast
3:55 PM 44.6 °F - 42.8 °F 93% 29.70 in 4.0 mi Calm Calm - N/A   Overcast
4:15 PM 44.6 °F 43.1 °F 44.6 °F 100% 29.71 in 4.0 mi East 3.5 mph - N/A   Overcast
4:35 PM 44.6 °F 43.1 °F 44.6 °F 100% 29.71 in 5.0 mi East 3.5 mph - N/A   Overcast
4:55 PM 44.6 °F 42.2 °F 44.6 °F 100% 29.71 in 3.0 mi ESE 4.6 mph - N/A   Overcast
5:15 PM 44.6 °F 43.1 °F 44.6 °F 100% 29.72 in 2.0 mi East 3.5 mph - N/A   Overcast
5:35 PM 44.6 °F 43.1 °F 44.6 °F 100% 29.72 in 2.0 mi ENE 3.5 mph - N/A   Overcast
5:55 PM 44.6 °F 43.1 °F 44.6 °F 100% 29.72 in 1.2 mi ENE 3.5 mph - N/A   Overcast
6:15 PM 44.6 °F - 44.6 °F 100% 29.72 in 0.8 mi Calm Calm - N/A   Overcast
6:35 PM 44.6 °F - 44.6 °F 100% 29.72 in 0.5 mi Calm Calm - N/A Fog Fog
7:35 PM 44.6 °F 43.1 °F 44.6 °F 100% 29.74 in 1.0 mi NNE 3.5 mph - N/A   Overcast
7:55 PM 44.6 °F - 44.6 °F 100% 29.75 in 1.2 mi Calm Calm - N/A   Overcast
9:15 PM 44.6 °F 42.2 °F 44.6 °F 100% 29.76 in 5.0 mi North 4.6 mph - N/A   Overcast
9:35 PM 44.6 °F 42.2 °F 44.6 °F 100% 29.77 in 4.0 mi North 4.6 mph - N/A   Overcast
9:55 PM 44.6 °F 41.4 °F 44.6 °F 100% 29.75 in 4.0 mi NNE 5.8 mph - N/A   Overcast
10:15 PM 44.6 °F 40.7 °F 44.6 °F 100% 29.75 in 7.0 mi NNE 6.9 mph - N/A   Overcast
10:55 PM 44.6 °F 41.4 °F 44.6 °F 100% 29.77 in 10.0 mi ENE 5.8 mph - N/A   Overcast
11:15 PM 44.6 °F 41.4 °F 44.6 °F 100% 29.77 in 10.0 mi NE 5.8 mph - N/A   Overcast
11:35 PM 44.6 °F 42.2 °F 44.6 °F 100% 29.76 in 10.0 mi ENE 4.6 mph - N/A   Overcast